Starlink 30164

operational
NORAD ID: 57500 Int'l Des: 2023-113 Owner: SPXS Country: US Constellation: starlink
LEOCIRCULAR

About Starlink 30164

Description loading...

Live Position

Loading 3D Globe...

Upcoming Passes

Altitude History

Altitude vs Time

uPlot chart will show altitude changes over time

Two-Line Element Set

1 57500U 23113F 25260.32667218 -.00000850 00000-0 -47883-4 0 9996
2 57500 43.0040 239.1922 0000775 286.4305 73.6452 15.02534176117588
Epoch: Sep 17, 2025 • Age: 30 hours

Current Status

Altitude 558.9 km
Velocity 7.58 km/s
Sub-Earth Point 1.50°N, 147°W
Launch Date Aug 7, 2023
Age 2.1 years
Type internet

Technical Details

Classification Payload
Mass 730.00 kg
Dry Mass 700.00 kg
Total Mass 730.00 kg
Length 0.30 m
Diameter 4.10 m
Span 29.00 m
Shape Box + pan
Manufacturer SPXS
Bus Type Starlink V2M
Phase Status In Orbit
Owner/State SPXS/US

Large Constellations

Loading constellations...